Theta_e
332 331 330 330 329 329 329 328 327 327 327 327 327 326 325 325 325 324 323 322 321 320 319 317 316 315 314 313 313 313 313 315 318 320 320 321 321 320 320 320 320 320 319 318 316 316 315 316 316 317 317 318 318 318 318 317 318 317 317 317 316 316 316 315 316 316 317 317 317 317 317 317 317 317 317 317 317 317 317 317 317 317 317 317 316
331 330 329 329 329 330 330 329 329 328 328 327 327 326 326 326 326 326 325 324 324 323 322 322 321 319 318 316 315 315 315 317 319 320 320 320 320 320 319 319 320 320 319 318 315 314 312 312 313 313 314 315 315 315 315 315 315 315 314 314 314 314 314 314 315 315 316 316 317 317 317 318 318 318 318 318 318 318 318 318 318 318 318 318 317
330 330 329 329 329 329 330 329 328 328 328 327 327 326 326 325 325 326 326 325 325 325 324 323 322 322 320 319 318 317 317 318 319 320 320 320 319 319 320 320 320 320 319 318 316 314 313 312 311 311 311 311 312 312 313 313 313 313 313 313 313 314 314 315 316 316 317 317 317 318 318 318 318 318 318 318 319 318 318 318 318 318 318 318 318
331 331 331 331 331 331 331 331 330 329 328 327 327 328 326 325 325 325 325 325 324 324 324 323 322 322 321 319 318 318 318 319 319 320 320 319 319 320 321 321 320 319 318 317 317 316 315 314 313 313 313 313 313 313 313 313 313 313 313 314 314 315 316 316 317 317 318 318 319 319 319 319 319 319 319 319 319 319 319 319 319 318 318 318 319
329 330 330 330 331 332 332 332 331 331 330 328 327 327 326 326 326 326 326 326 325 324 324 324 323 322 321 320 319 318 319 319 319 319 319 319 320 320 321 320 319 318 318 318 318 318 317 317 317 317 317 317 316 316 316 316 316 316 316 317 317 318 318 318 319 319 319 319 319 320 320 320 320 320 320 320 319 319 319 319 319 318 318 318 318
330 329 329 329 330 330 330 330 329 329 330 329 327 326 326 327 328 328 328 328 327 326 326 325 325 324 323 322 320 319 319 319 319 319 319 320 320 321 320 319 319 319 319 319 319 319 319 319 319 319 319 319 319 319 319 319 319 319 319 319 319 319 320 320 320 320 320 321 320 320 320 320 321 321 321 320 320 319 319 319 319 319 319 318 318
332 332 330 330 330 330 330 329 329 328 328 328 328 327 327 327 328 328 328 327 327 327 327 326 326 326 325 324 322 321 321 320 320 320 320 321 321 320 319 319 320 320 321 321 320 320 320 320 320 320 320 320 320 320 320 320 319 320 320 320 320 320 320 320 321 321 321 321 322 321 321 321 321 321 321 321 321 320 320 319 320 320 319 319 319
332 332 332 332 332 331 331 331 330 330 329 329 329 329 329 328 328 328 327 327 328 328 327 327 326 326 326 326 324 323 322 321 321 321 321 321 321 320 320 321 322 323 324 324 323 323 322 322 322 321 321 321 321 321 321 321 321 321 321 320 320 320 320 321 321 322 322 322 322 322 321 321 321 321 321 321 322 321 320 320 320 320 320 320 319
330 331 331 332 332 332 332 332 332 331 331 330 330 330 330 329 328 328 328 328 328 328 328 327 327 327 327 326 325 324 323 322 321 321 321 321 322 322 323 323 324 324 325 325 324 325 324 324 324 324 323 323 323 323 323 324 324 323 323 323 322 322 322 322 323 323 323 323 323 322 322 321 321 321 321 321 322 321 321 320 320 320 320 320 320
330 330 331 331 331 332 331 331 331 332 332 331 330 331 330 329 328 328 328 328 328 328 328 328 328 328 328 328 327 325 324 324 323 323 323 324 323 323 323 323 323 323 323 323 323 323 323 324 324 325 325 325 325 325 325 325 325 325 324 324 324 324 324 324 324 324 323 323 322 322 322 321 321 321 321 322 322 322 322 321 321 321 321 321 321
329 330 330 330 330 331 331 330 331 331 331 331 331 331 331 330 329 329 329 328 328 329 329 328 328 328 328 329 328 326 326 326 325 325 325 324 324 323 323 322 322 322 321 321 321 321 322 322 323 324 324 325 325 325 325 325 324 325 325 325 324 324 324 324 324 323 323 323 322 322 322 321 321 321 321 321 320 321 321 321 321 321 321 321 321
328 328 329 329 329 329 329 330 330 330 330 331 331 331 331 331 331 330 330 329 330 330 329 329 329 328 327 328 328 327 327 327 327 326 326 325 325 324 324 324 323 322 322 322 322 322 322 322 323 323 323 323 324 323 323 323 323 323 324 324 324 324 323 323 323 322 322 322 322 322 322 321 321 321 321 321 321 320 320 320 320 320 320 320 321
327 328 328 328 328 328 328 329 329 329 329 329 330 330 331 331 331 331 330 330 330 330 330 330 330 329 329 329 329 328 327 327 327 327 326 326 326 325 325 325 324 324 323 323 323 323 323 323 323 323 323 322 322 322 322 322 322 322 322 322 323 324 323 323 323 323 322 322 322 322 323 323 323 323 323 323 322 322 321 321 320 320 320 319 319
326 327 327 327 327 327 326 326 327 327 327 327 328 329 329 330 330 329 330 329 330 330 330 330 331 331 331 331 330 329 328 328 328 327 327 327 327 327 327 326 325 325 325 325 324 325 324 324 324 324 324 324 323 323 323 323 323 322 322 322 323 323 323 323 323 323 323 322 322 322 322 322 322 322 323 323 323 323 322 321 321 320 320 319 319
324 324 324 324 324 324 324 324 325 325 326 326 327 328 328 328 328 327 328 329 329 329 329 329 330 330 331 331 331 330 330 329 329 328 328 329 329 329 328 327 327 326 326 326 325 325 325 325 325 324 325 325 324 324 323 323 323 323 323 323 323 323 323 323 323 323 323 322 322 322 321 321 321 321 321 321 322 322 321 321 320 320 319 319 319
320 320 320 321 321 321 321 322 323 323 324 324 325 326 326 326 326 326 326 327 328 328 328 328 328 328 329 330 331 330 330 330 330 330 330 329 329 329 329 329 328 328 327 326 326 326 326 325 325 326 326 325 325 324 324 324 324 324 324 323 322 322 322 323 323 323 323 322 322 322 321 321 321 321 321 321 321 320 320 320 319 319 319 319 320
314 316 316 317 318 318 319 319 320 320 320 321 322 322 322 322 322 322 321 321 323 325 326 326 326 326 326 327 328 330 330 330 330 330 330 330 330 329 329 329 329 328 328 327 327 327 325 325 325 326 326 326 326 325 325 324 324 324 323 322 322 322 322 322 323 323 323 322 321 321 320 320 320 319 319 319 319 319 319 318 318 318 318 319 321
309 310 311 312 312 313 314 315 316 316 316 316 316 317 318 318 317 316 315 315 316 318 321 323 324 325 325 325 325 327 327 328 329 330 330 329 329 330 329 329 329 329 328 328 327 327 326 324 324 324 325 326 326 326 325 324 324 324 323 322 321 321 321 321 322 322 322 322 321 320 319 318 318 318 318 318 318 318 318 318 318 318 318 319 320
304 305 306 306 307 308 309 310 311 311 312 312 312 313 313 313 313 312 312 312 312 313 314 316 319 321 323 324 324 324 324 325 326 328 329 329 328 329 329 329 329 328 328 328 328 326 325 324 323 323 323 324 325 324 324 323 323 323 323 322 321 321 321 321 322 322 322 322 321 320 320 319 319 319 318 318 318 318 318 318 318 318 319 319 320
300 301 301 302 302 303 304 305 306 307 308 309 309 309 310 310 310 311 311 311 311 311 311 312 313 315 316 318 320 321 322 323 324 324 326 328 328 328 328 328 328 328 328 328 327 326 325 324 324 324 323 323 323 323 323 323 323 322 322 322 321 321 321 322 321 322 322 322 321 321 321 320 319 320 320 319 319 318 318 318 318 318 319 319 320
298 298 298 299 299 299 300 300 301 302 303 303 304 305 306 307 308 309 309 309 310 310 310 310 310 311 312 313 314 315 317 319 321 322 322 324 326 326 327 327 327 327 327 327 327 326 326 325 325 324 323 321 321 321 322 322 322 322 321 321 322 321 321 321 321 321 322 322 321 321 322 321 320 321 321 320 319 319 318 319 319 318 318 319 319
297 297 297 296 296 297 297 297 297 298 298 299 300 301 301 302 303 303 304 305 306 307 307 307 308 308 308 309 310 311 312 313 316 318 319 320 321 322 322 323 324 325 325 325 325 326 326 326 325 323 321 320 320 320 320 320 320 320 321 321 321 322 322 321 321 321 321 321 322 322 323 322 321 321 321 320 319 319 318 318 318 318 318 318 318
295 295 295 295 295 295 295 295 295 295 295 296 297 297 298 298 298 299 299 300 301 302 303 304 305 306 306 307 307 307 308 308 310 312 314 316 317 318 319 320 321 321 321 322 322 322 324 324 323 322 321 320 320 319 319 319 319 320 321 321 321 321 322 322 321 321 321 321 322 322 322 321 319 319 318 318 318 318 318 318 318 318 318 318 318
294 294 294 295 295 294 294 294 294 293 294 294 294 294 294 295 295 296 296 296 297 298 299 301 302 303 305 305 305 305 305 305 305 307 309 312 314 315 317 318 318 319 320 320 321 321 321 321 321 321 321 321 320 319 318 318 319 319 319 320 321 321 322 322 321 321 321 321 321 321 321 320 319 318 318 317 317 317 317 318 318 319 319 319 319
293 293 293 293 293 293 293 293 292 292 292 292 292 292 292 292 293 293 294 294 295 295 296 296 297 299 301 302 302 303 303 303 303 304 305 307 309 310 313 315 315 316 318 319 320 320 320 319 319 319 320 320 320 319 318 317 317 317 316 317 319 320 321 322 322 321 322 321 321 321 320 320 320 320 320 319 317 316 316 316 317 318 319 320 319
290 290 290 290 290 290 290 290 290 290 290 290 290 291 291 291 291 291 292 292 292 293 293 293 294 295 296 297 298 298 299 300 300 301 302 302 303 304 307 310 312 314 315 317 318 319 320 319 318 317 317 317 318 318 316 315 314 313 313 314 316 319 321 322 322 322 322 322 322 321 320 320 321 321 322 320 318 316 316 315 316 317 318 318 319
288 288 288 288 288 288 288 288 288 288 288 289 289 289 289 290 290 290 290 290 291 291 291 291 292 293 293 293 293 294 295 295 296 297 298 298 299 300 302 305 308 310 312 314 315 316 317 318 318 317 317 316 316 316 314 313 311 311 311 311 314 318 320 321 322 322 323 323 322 321 320 320 321 321 321 321 319 317 315 314 314 315 316 317 317
286 287 287 287 287 287 287 287 287 287 287 287 287 288 288 288 288 288 289 289 289 289 290 290 290 290 291 291 291 291 292 292 292 293 293 294 295 296 298 300 303 306 308 310 311 313 314 316 317 317 317 317 316 316 316 315 313 311 310 310 312 315 318 320 322 323 322 322 322 321 321 321 320 319 320 321 320 318 315 313 311 311 312 313 314
286 286 286 285 285 286 286 286 286 286 286 286 286 286 286 286 286 287 287 287 287 288 288 289 289 289 289 289 290 290 290 290 290 291 291 291 292 293 294 295 297 300 303 305 307 309 311 313 315 316 317 317 317 317 316 316 316 314 313 311 311 313 316 319 320 321 321 321 321 320 320 321 320 318 318 319 320 319 317 313 311 310 311 311 312
285 285 285 285 285 285 285 285 285 285 285 285 285 285 285 285 285 285 286 286 286 286 286 287 287 287 288 288 288 288 289 289 289 289 289 290 290 290 291 291 293 295 299 301 303 305 308 310 312 314 314 316 317 317 317 316 316 316 315 313 312 312 314 316 317 318 319 319 319 319 319 320 320 318 315 315 316 317 316 315 315 315 314 314 314
284 284 284 284 284 284 284 284 284 284 284 284 284 284 284 284 284 284 285 285 285 285 285 285 286 286 286 287 287 287 287 288 288 288 288 288 288 289 290 291 293 295 297 298 300 302 304 304 307 310 311 313 315 315 316 316 315 315 315 314 313 312 312 313 315 315 316 317 317 317 318 319 319 317 314 314 313 312 312 314 316 316 315 315 315
283 283 283 283 283 283 284 284 283 284 284 284 284 284 284 284 284 284 284 284 284 284 284 284 284 285 285 285 286 286 286 286 287 287 287 287 287 288 291 292 293 294 295 296 296 299 300 300 301 304 305 307 311 313 314 315 314 314 314 314 314 313 312 312 313 313 314 315 317 318 318 318 317 314 312 312 311 310 311 312 313 314 313 312 312
282 282 282 282 282 282 283 283 283 283 283 283 283 283 283 283 283 283 283 283 283 284 284 283 284 284 284 284 284 284 285 285 286 286 286 286 286 287 288 289 289 289 290 292 292 294 297 297 297 299 300 301 304 308 310 312 314 313 313 313 314 314 313 312 312 312 312 314 316 318 318 317 315 314 313 312 311 310 310 309 310 310 310 309 308
281 281 281 281 281 281 281 281 282 282 282 282 282 282 282 283 283 283 283 283 283 283 283 282 283 283 283 284 283 283 284 284 285 285 285 285 285 285 285 285 286 287 288 290 291 291 293 294 294 296 297 296 298 302 304 306 310 312 312 312 312 313 314 313 313 312 311 312 314 315 316 316 315 314 314 312 312 311 309 307 308 308 308 308 308
280 281 281 281 281 281 281 281 281 281 281 281 281 281 281 282 282 282 282 282 282 282 282 281 282 282 283 283 283 284 284 283 284 284 284 284 284 284 285 286 286 287 287 288 289 288 289 290 290 291 293 293 294 296 298 299 303 307 309 311 311 312 313 313 313 313 312 312 313 314 314 314 314 313 312 312 312 311 309 307 306 307 307 307 307
280 280 280 280 280 280 280 280 280 280 280 280 280 280 280 281 281 281 281 281 282 282 281 281 282 282 283 284 284 284 283 283 283 284 284 283 283 284 285 286 286 286 286 286 286 287 287 288 289 289 290 291 291 292 294 295 298 300 303 306 309 311 312 312 312 312 313 313 313 313 313 313 313 312 312 312 311 310 308 307 306 306 306 306 307
280 280 280 280 280 280 280 280 280 280 280 280 280 280 280 280 280 280 280 281 281 281 281 280 281 281 282 283 283 283 283 283 284 285 284 283 284 285 285 285 285 284 284 284 285 285 285 286 287 288 288 289 289 290 291 292 294 297 299 300 303 305 308 310 311 311 311 312 312 312 312 312 313 313 312 312 310 308 307 306 306 306 306 306 306
280 280 280 280 280 280 280 280 280 280 280 280 279 279 279 279 279 279 280 280 280 280 280 280 280 280 281 282 283 283 283 284 285 285 284 284 285 285 285 284 284 283 283 283 283 283 283 284 285 286 287 287 288 288 288 289 291 293 296 297 298 300 302 304 307 309 308 309 309 310 310 311 312 312 311 310 308 307 306 306 306 306 306 306 306
279 279 279 279 279 279 279 280 280 280 280 280 279 279 279 279 279 279 279 279 279 279 279 279 280 281 282 282 283 283 283 283 284 284 284 284 285 284 284 283 283 282 282 281 281 282 283 283 283 284 285 285 286 286 286 287 288 290 291 293 295 297 299 300 301 304 305 306 306 307 308 308 309 309 308 307 307 306 306 306 306 306 306 306 306
279 279 279 279 279 279 279 279 279 279 279 279 279 279 278 278 278 278 278 278 278 278 279 280 281 281 282 282 282 282 282 282 282 282 283 283 283 283 283 283 282 282 281 281 281 282 283 283 283 283 283 284 284 284 285 287 287 288 288 289 290 293 295 296 297 299 301 302 302 304 305 306 307 307 307 306 306 306 306 305 305 305 305 306 306
278 278 278 278 278 279 279 279 279 279 279 279 279 278 278 277 277 277 277 277 277 278 279 280 281 281 281 280 280 280 280 280 280 281 281 282 282 282 282 282 281 281 281 281 282 282 282 283 283 283 283 284 284 284 285 286 286 287 287 287 287 288 290 292 294 297 298 298 298 301 303 304 304 305 306 306 306 305 306 305 305 305 305 305 306
278 278 278 278 278 278 278 278 278 278 279 279 278 278 277 277 276 276 277 277 277 278 279 280 280 280 279 279 279 278 279 279 279 279 280 280 281 281 281 281 281 281 281 281 282 282 282 282 282 282 283 284 284 284 284 284 285 286 286 286 287 287 288 289 291 294 295 295 295 297 299 301 302 302 304 305 305 306 306 306 305 305 305 306 307
277 277 277 278 278 278 278 278 278 278 278 278 278 277 277 277 276 276 276 276 276 277 279 279 279 279 278 277 277 278 278 278 278 279 279 279 279 280 279 279 280 281 281 281 282 282 281 281 281 282 283 283 284 284 284 284 284 285 286 286 286 286 286 287 289 291 292 293 293 294 296 299 299 300 301 303 304 305 307 307 307 308 308 309 310
277 277 277 277 277 277 277 277 277 277 278 278 277 277 277 276 276 276 276 276 276 276 277 278 278 277 277 276 276 277 277 277 277 278 278 278 278 279 279 279 279 280 280 281 281 281 280 280 281 281 282 283 283 283 283 284 284 284 284 285 285 285 286 287 287 289 290 291 291 292 294 296 297 297 299 301 302 303 305 307 308 309 310 310 311
277 277 277 277 277 277 277 277 277 277 277 277 277 277 276 276 276 275 275 275 275 275 276 277 277 276 275 275 276 276 276 276 275 276 276 277 278 278 278 278 278 278 278 278 279 279 279 279 280 281 281 282 282 282 282 283 283 283 283 283 284 285 285 286 286 287 288 289 290 290 292 294 295 295 296 298 299 301 302 304 305 306 307 308 308
276 276 276 276 276 276 276 276 276 276 277 277 276 276 276 275 275 275 275 275 274 275 276 277 276 275 275 274 274 275 275 274 274 275 276 277 277 277 278 277 277 277 277 277 277 278 278 279 280 280 280 281 281 282 282 282 282 282 282 283 283 283 284 284 285 285 286 287 288 288 290 292 293 294 295 296 297 298 299 300 302 303 304 305 306
276 276 276 276 276 276 276 276 276 276 276 276 276 276 275 275 275 274 274 274 274 275 276 276 275 275 274 274 274 275 275 274 275 275 276 276 277 277 277 277 277 277 277 277 277 278 278 279 279 280 280 280 281 281 281 281 281 282 282 282 283 283 284 284 284 284 285 286 287 288 289 291 292 293 294 294 295 296 297 298 299 300 301 302 303
276 276 276 275 275 275 275 275 275 276 276 276 275 275 275 274 274 273 273 273 274 275 276 275 275 274 273 273 274 274 275 275 275 275 275 276 276 277 277 277 277 277 277 277 277 278 278 278 279 279 280 280 280 280 281 281 282 282 282 283 283 283 283 284 284 284 285 285 286 287 288 290 291 292 293 294 294 295 296 297 298 299 299 299 301
275 275 275 275 275 275 275 275 275 275 276 275 275 275 274 273 272 272 272 273 274 275 275 274 273 272 272 273 274 274 274 274 274 274 275 276 276 277 276 276 276 276 276 276 277 277 278 278 278 278 278 278 279 279 279 280 280 281 281 281 281 282 282 283 283 284 284 285 285 286 287 288 290 291 292 293 294 294 295 296 297 298 298 298 299
275 275 275 275 275 274 274 275 274 274 275 275 274 274 273 272 271 272 272 273 273 274 274 273 272 272 272 273 274 274 274 274 274 274 275 276 276 276 275 275 275 275 276 276 276 276 276 277 277 277 277 277 278 278 279 279 280 280 280 280 281 281 282 282 283 284 284 285 285 286 287 287 289 290 291 292 293 294 294 295 295 296 297 297 298
274 274 274 274 274 274 274 274 274 274 274 274 274 273 273 271 271 271 272 272 273 273 273 273 272 272 272 273 273 274 273 273 273 274 275 276 276 275 274 274 275 275 275 275 275 275 276 276 276 277 277 277 277 278 278 279 279 279 280 280 281 282 282 282 283 284 284 285 285 286 287 287 288 289 290 291 292 293 293 294 294 295 295 296 297
Wind_Speed
14 14 15 16 19 21 21 19 19 19 20 21 22 22 20 20 21 22 22 23 23 22 22 23 23 22 22 22 22 21 20 19 18 18 18 17 17 18 18 19 20 21 22 23 23 23 23 23 23 24 24 24 24 23 24 24 23 23 23 23 22 22 21 21 21 21 21 21 21 21 21 22 22 22 23 23 23 24 24 24 24 24 24 24 24
14 14 14 15 16 18 20 20 21 22 22 21 22 22 22 22 23 24 24 25 26 25 25 26 26 26 26 25 24 24 22 21 20 19 20 20 20 20 20 21 21 21 22 23 23 23 23 23 24 24 24 24 24 24 24 24 24 24 24 23 23 22 22 22 21 21 21 22 22 21 22 22 22 23 23 23 24 24 24 24 24 24 24 24 24
12 13 14 14 15 16 17 18 20 22 22 21 20 20 22 23 22 23 25 27 28 29 29 29 29 29 28 27 27 26 25 23 22 22 22 22 23 23 23 22 21 21 21 21 22 22 22 22 22 22 23 23 23 23 24 24 24 24 24 24 24 23 23 23 22 22 22 23 23 23 23 23 23 23 24 24 24 25 24 24 24 24 24 24 24
13 14 15 15 16 17 18 19 20 21 20 20 20 21 23 23 21 21 23 25 27 27 28 29 29 30 29 28 28 27 26 26 25 25 24 24 24 25 25 23 21 20 20 20 20 21 21 21 21 21 22 22 22 23 23 24 24 25 25 25 24 25 25 24 24 24 24 24 24 24 24 24 25 25 25 25 25 25 25 25 25 25 25 25 25
13 14 15 16 16 16 17 19 21 22 21 21 20 20 21 22 22 23 24 24 26 25 25 26 26 27 28 29 29 28 28 28 27 28 27 27 26 26 26 24 21 20 19 18 19 19 20 20 21 21 22 22 23 23 24 24 25 25 26 26 26 26 26 26 26 25 26 26 26 26 26 26 26 26 26 26 26 26 26 26 26 26 26 26 26
13 14 14 15 15 15 16 18 20 21 23 24 22 19 20 21 22 24 25 26 27 27 27 28 27 27 27 27 28 28 29 29 29 29 29 29 28 28 26 24 22 21 19 19 19 19 20 20 20 21 22 23 24 24 25 25 26 27 27 27 27 27 27 27 27 27 27 27 28 28 28 28 28 28 27 27 27 26 26 26 26 27 27 27 27
10 12 13 14 14 15 15 16 18 18 19 21 21 20 21 22 23 24 25 26 27 27 28 30 31 31 29 27 27 27 29 30 30 30 31 31 30 29 27 25 24 22 21 20 20 20 21 21 22 22 23 24 25 25 26 27 27 28 29 29 29 29 29 29 29 28 29 29 29 29 29 29 29 29 29 28 28 28 28 28 28 28 28 28 28
8 9 12 13 14 15 15 16 16 17 17 17 18 20 21 22 23 24 25 26 26 27 29 31 33 33 31 30 29 28 28 29 30 30 30 31 31 30 29 28 27 25 24 23 22 22 22 22 23 23 24 25 25 26 27 27 28 29 29 30 30 31 31 30 30 29 29 29 29 29 28 28 29 29 29 29 29 29 29 29 29 29 29 29 29
10 10 10 10 10 11 12 14 15 16 17 17 17 18 18 20 22 22 23 25 26 27 28 29 31 32 31 31 31 30 30 29 29 30 29 29 29 28 28 27 27 25 25 24 23 22 22 22 23 24 24 25 26 26 27 27 27 28 28 29 29 30 30 29 29 28 28 28 28 27 27 27 27 27 27 27 28 28 29 29 30 30 31 31 31
11 10 9 8 8 9 10 12 12 13 15 16 17 17 16 19 21 21 22 24 26 26 26 27 29 31 32 32 32 31 31 30 29 29 29 29 28 27 26 26 25 24 23 23 23 22 21 21 21 22 22 23 24 24 24 25 24 24 25 25 26 26 27 27 27 27 27 27 26 25 25 26 26 26 26 26 26 27 28 28 29 30 31 31 32
10 10 10 9 9 10 11 11 12 12 12 13 15 16 17 18 20 20 21 23 24 24 24 26 28 30 31 33 34 33 31 30 29 29 29 28 28 27 26 25 24 23 23 22 21 21 20 19 18 18 19 19 20 20 21 21 21 21 22 22 23 24 25 26 26 26 26 26 26 25 26 26 27 27 27 27 27 28 28 29 29 30 31 32 33
8 9 10 10 11 11 11 12 12 12 12 12 13 15 17 18 19 20 21 23 24 24 24 25 26 29 32 33 33 33 32 30 29 28 28 27 27 27 26 25 24 23 23 21 20 19 19 19 18 18 18 18 18 19 19 20 21 22 22 22 22 23 24 24 25 26 26 27 27 27 28 28 29 30 30 30 30 30 30 31 31 32 33 34 35
7 8 9 9 10 10 11 11 11 11 11 11 12 14 15 16 17 18 19 21 22 22 23 25 27 28 31 33 34 34 32 31 30 29 28 27 26 26 25 24 23 22 21 20 19 19 20 20 20 19 19 19 19 20 21 22 23 23 23 23 22 22 23 25 26 27 28 30 30 31 32 33 33 34 34 34 34 34 34 34 35 35 36 36 37
9 9 10 11 12 12 13 13 13 12 12 11 11 12 13 14 16 16 17 19 20 20 20 24 28 29 31 35 36 37 35 34 33 32 31 29 27 26 25 24 22 22 22 22 22 22 22 22 21 21 21 22 22 23 23 23 23 23 23 23 23 24 26 28 29 30 32 33 34 35 36 37 37 37 38 37 37 37 37 37 37 38 38 39 39
10 11 12 13 14 14 15 15 15 15 14 13 13 13 13 14 15 16 18 18 18 18 17 19 23 28 31 31 32 36 39 38 36 35 35 34 32 29 28 27 27 28 27 26 25 24 23 23 24 24 25 25 25 25 24 24 23 24 24 25 26 27 28 29 30 31 33 34 35 35 36 37 38 38 39 39 39 39 39 39 39 39 39 39 38
12 12 13 13 14 15 15 15 15 16 16 16 15 15 16 16 17 18 21 22 22 21 18 17 18 22 26 28 31 31 31 34 39 41 40 37 35 32 30 31 30 30 29 28 28 28 28 28 28 28 27 27 26 26 25 25 26 26 26 26 27 27 28 28 29 31 32 33 33 34 35 36 37 37 38 39 39 38 38 38 38 38 37 36 35
13 13 14 14 14 15 16 16 17 17 17 18 18 18 18 19 20 21 22 24 25 25 24 22 19 18 19 24 27 26 28 35 41 43 42 39 38 36 35 33 32 31 30 29 30 31 33 33 31 29 28 28 28 28 28 28 27 28 28 27 27 28 28 29 30 31 31 32 32 33 34 35 35 36 36 36 36 36 35 35 35 35 34 32 32
14 15 15 15 15 16 16 17 18 18 19 19 20 20 21 21 23 23 23 23 25 27 28 27 26 23 20 20 22 23 31 39 40 41 43 42 40 39 38 36 35 35 33 31 31 31 32 32 32 32 31 30 30 30 30 30 30 30 30 29 28 28 29 29 29 30 30 31 30 31 32 33 33 32 33 32 32 32 32 31 32 31 31 30 30
15 15 16 16 17 17 17 18 19 19 20 21 21 21 22 22 22 23 24 24 25 26 28 29 29 27 25 24 24 24 27 30 33 38 43 44 42 41 42 40 39 39 36 35 35 35 33 30 30 31 32 32 32 31 31 31 31 31 30 29 29 28 28 29 29 29 30 30 29 29 30 30 30 29 29 29 28 28 29 29 28 28 27 27 27
16 16 17 17 18 18 18 19 19 20 20 21 22 23 22 22 22 22 22 23 25 26 27 28 29 30 29 28 28 29 27 27 28 31 35 43 46 44 43 42 41 41 39 38 39 37 35 32 30 29 29 30 31 31 31 31 31 30 30 30 29 28 27 28 29 29 29 29 28 27 27 27 28 27 26 26 26 26 26 26 25 25 25 25 25
17 18 18 19 19 20 20 20 20 21 21 21 22 22 23 23 24 24 24 24 24 25 26 26 27 29 30 31 31 32 32 31 29 27 31 37 41 41 41 41 42 41 39 39 40 39 36 33 32 32 31 31 30 29 28 29 29 30 31 30 28 27 27 27 28 28 28 28 28 26 25 26 26 25 24 24 24 25 24 24 24 24 24 24 24
21 21 21 21 21 21 22 22 23 23 23 24 24 24 24 25 25 25 26 26 25 25 25 26 26 27 27 29 31 32 32 32 31 29 30 33 36 37 37 38 40 41 38 36 36 35 33 32 33 35 35 33 31 28 27 28 28 29 30 29 28 26 25 25 25 26 27 27 27 25 24 26 25 23 23 24 24 24 24 24 25 24 24 24 24
25 25 25 25 25 24 24 24 24 24 24 25 26 27 27 27 27 27 27 27 27 27 27 27 27 27 27 28 28 28 27 27 29 29 28 29 33 36 35 34 37 39 39 38 37 34 32 32 33 33 34 33 32 30 29 28 27 27 28 27 27 26 25 25 24 24 25 25 25 24 24 24 24 22 22 24 24 25 26 26 26 26 25 25 24
26 27 27 28 28 28 28 28 27 26 26 26 26 26 27 28 28 28 28 28 28 29 29 29 29 30 30 29 28 28 26 25 27 28 26 26 28 32 35 33 33 36 36 36 38 38 36 35 33 31 32 32 33 32 31 30 27 26 27 27 26 26 25 24 24 23 23 24 24 23 23 24 24 24 23 24 25 26 26 27 27 26 26 26 25
27 28 28 28 29 29 30 30 30 29 29 28 28 27 28 28 28 28 28 29 30 30 30 30 30 31 31 31 30 29 29 28 28 28 28 28 29 32 36 36 35 36 36 34 34 36 37 37 34 33 32 33 33 33 33 31 29 27 26 27 26 25 25 24 24 24 23 23 23 23 24 25 25 25 25 26 26 27 27 27 27 27 27 27 27
28 28 29 29 29 29 29 30 30 30 30 30 30 29 29 29 29 29 29 29 29 30 30 30 31 31 31 31 31 31 31 30 30 30 30 30 30 30 33 38 39 39 37 34 32 32 34 35 35 34 33 34 34 34 33 31 30 29 27 27 26 24 24 24 25 25 24 24 24 25 25 25 25 26 26 27 27 26 27 27 27 27 27 27 28
28 28 29 29 29 29 30 30 30 30 31 31 32 31 31 31 30 30 30 30 30 30 30 31 32 32 31 31 32 32 31 31 31 31 30 29 29 28 27 31 37 40 40 38 35 32 31 31 32 33 33 34 33 32 32 31 30 29 29 28 27 25 24 24 25 25 25 25 25 26 26 25 26 26 27 28 28 27 27 26 26 27 27 28 28
28 28 29 29 30 30 30 30 30 31 31 32 32 33 33 33 33 32 32 31 31 31 31 32 32 32 33 33 33 33 32 32 32 32 31 30 29 29 27 26 29 35 39 39 37 35 32 30 29 31 31 32 33 32 31 32 31 30 30 29 29 29 26 24 25 26 26 27 27 28 28 27 27 27 27 28 28 28 28 28 28 27 27 28 28
28 29 29 29 30 30 31 31 31 31 31 32 32 33 33 34 34 34 34 34 33 33 33 33 33 33 33 33 33 34 33 33 32 32 32 31 31 30 29 26 24 28 33 36 37 37 34 31 28 29 29 29 31 32 31 32 32 31 31 31 31 31 28 25 26 27 27 28 29 30 30 29 28 28 28 28 28 27 28 29 29 27 27 27 27
28 28 29 29 29 29 30 30 31 31 31 31 32 32 33 33 34 34 34 35 35 35 35 34 34 34 34 34 33 34 34 34 34 33 32 31 31 30 30 29 26 25 26 31 37 38 32 30 30 30 30 30 31 32 33 33 33 33 32 33 33 32 31 30 30 29 29 29 31 31 30 30 30 29 29 28 28 27 27 28 27 26 26 27 27
27 28 28 29 29 30 30 30 30 31 31 31 32 32 32 32 33 33 34 34 35 36 36 36 36 35 35 34 34 34 34 34 34 33 32 31 31 30 28 27 24 22 22 25 34 41 36 33 38 37 34 35 35 34 36 36 34 34 33 33 34 33 33 33 32 31 31 32 32 31 30 30 31 31 30 28 28 27 27 26 26 26 26 26 26
28 28 29 29 30 30 30 30 30 30 31 31 31 31 32 32 32 33 33 33 33 35 35 35 35 35 35 34 34 34 35 36 35 34 33 31 29 26 24 24 22 21 23 23 29 43 45 38 41 43 39 39 40 38 38 39 36 34 33 33 34 35 34 34 34 33 32 32 31 30 31 32 33 33 31 29 28 28 27 27 26 26 26 26 26
29 29 30 30 30 30 30 30 31 31 31 31 31 31 31 32 32 33 33 33 33 34 33 33 32 32 32 33 34 35 34 35 36 35 34 31 29 26 26 28 29 27 27 26 29 40 48 44 42 44 42 38 40 41 39 40 41 39 37 36 35 35 35 36 36 36 34 33 31 31 32 34 34 33 32 31 30 29 29 28 28 28 28 28 28
29 29 30 30 30 30 30 31 31 31 31 31 31 30 31 31 32 32 32 33 34 34 32 32 31 29 29 30 33 33 32 32 33 33 34 33 32 31 31 31 31 28 25 24 26 33 42 47 45 45 45 40 38 40 39 38 42 45 43 41 39 36 35 36 37 37 37 35 34 34 35 35 35 34 34 34 32 31 31 30 29 29 29 29 29
27 27 28 29 29 29 30 30 31 31 31 31 30 30 30 31 31 31 31 32 33 33 32 31 29 28 27 28 29 29 29 31 29 27 30 32 33 34 32 29 26 25 23 22 25 31 39 47 47 45 46 44 41 40 40 38 39 42 44 45 44 41 39 37 38 39 39 37 37 37 38 38 38 37 37 36 34 34 34 32 31 31 30 30 30
27 27 27 28 28 29 29 30 30 31 31 31 31 30 30 30 30 31 30 31 31 31 31 30 28 28 27 27 27 27 28 30 28 26 28 32 32 31 28 24 25 27 28 27 27 30 35 42 45 43 41 42 42 40 39 39 38 39 42 44 47 47 46 44 42 42 42 41 40 40 41 41 40 39 38 38 37 37 37 35 34 33 32 32 32
28 28 28 29 29 29 30 30 31 31 31 31 31 31 30 30 30 30 30 30 30 30 30 29 28 28 27 27 28 28 29 30 29 28 31 34 32 27 24 26 30 32 32 30 29 31 33 37 42 43 40 40 42 40 37 37 39 40 41 42 43 46 49 50 49 47 46 45 44 43 43 43 41 41 41 41 41 40 39 37 36 36 35 34 34
28 29 29 29 29 30 30 31 31 31 31 31 31 31 31 31 30 30 30 30 30 30 29 28 27 27 27 28 29 28 28 29 28 28 31 34 31 26 26 31 34 33 33 34 35 36 37 39 42 45 45 43 43 44 40 37 39 41 41 41 42 42 44 48 52 53 50 47 46 45 45 46 46 45 45 45 44 42 41 39 38 38 38 37 37
29 29 29 29 30 30 30 31 31 32 32 32 32 32 32 32 32 31 31 30 30 29 27 26 26 26 26 26 26 26 26 27 27 27 29 31 28 25 28 33 34 33 36 40 39 37 37 39 41 43 45 45 45 46 43 37 35 37 39 39 41 42 42 42 46 51 53 51 49 47 46 47 49 49 49 48 46 43 42 40 39 39 39 39 40
29 30 30 31 31 31 31 31 31 32 32 32 33 33 33 33 32 31 31 31 30 29 26 25 25 24 24 26 28 30 31 32 32 30 29 30 29 28 30 32 34 36 40 41 38 33 32 34 38 40 42 44 45 44 41 37 35 36 37 38 41 45 45 44 44 46 49 50 51 51 50 49 48 49 49 47 46 45 44 42 41 41 41 42 42
29 30 30 31 32 32 32 32 32 32 32 32 33 34 33 32 31 31 31 30 29 28 25 25 25 26 28 31 32 34 35 36 35 33 32 32 33 33 35 36 37 39 38 35 31 29 29 30 33 36 38 40 41 40 39 38 37 38 38 39 42 44 46 47 47 45 45 45 47 50 52 51 49 48 49 48 48 46 45 44 43 43 43 43 42
29 30 31 31 32 33 33 34 33 33 33 33 33 33 32 31 30 30 30 29 28 26 25 25 27 30 32 33 35 37 37 37 35 32 31 32 34 35 37 36 35 34 32 31 30 29 29 30 31 32 34 35 35 37 38 39 39 38 38 39 41 42 43 45 47 47 45 42 42 45 49 50 47 46 48 48 48 46 44 44 45 44 43 42 41
31 32 33 33 33 34 35 35 35 35 34 34 33 33 32 30 29 28 28 29 27 25 24 26 27 30 33 35 37 38 38 36 33 31 30 30 30 31 31 30 29 28 28 30 31 30 30 31 31 31 32 33 35 37 38 39 39 38 38 38 41 43 42 42 44 46 44 39 39 43 47 48 45 44 46 47 47 44 41 41 41 40 40 40 40
34 35 35 35 36 35 36 36 36 36 35 34 34 33 32 30 28 26 26 28 27 26 25 25 27 31 36 38 37 36 33 32 31 31 29 27 26 26 26 26 26 26 26 27 30 31 31 32 33 32 32 33 35 36 37 38 39 40 40 41 41 41 41 40 42 44 42 38 37 41 46 48 44 43 45 47 47 44 41 40 39 37 37 38 39
36 37 36 37 37 36 36 37 36 36 35 35 34 33 32 30 27 26 26 28 29 27 25 25 29 34 37 37 36 33 31 31 31 29 27 26 27 27 27 27 27 27 28 28 29 30 31 31 32 33 33 34 36 37 37 38 40 42 43 43 41 41 43 43 44 46 44 41 40 42 46 49 48 45 45 48 50 48 46 45 44 42 41 41 41
38 38 37 37 37 36 36 36 36 36 35 34 33 32 32 30 27 26 27 28 28 26 23 25 31 35 35 34 32 30 30 30 29 27 26 27 28 29 29 29 29 29 30 31 31 31 30 29 30 33 35 36 37 39 40 40 42 43 44 45 45 45 47 47 48 50 48 45 44 44 46 50 51 50 49 49 51 52 51 50 51 50 49 48 48
37 37 36 36 36 36 35 35 36 36 35 34 33 32 31 29 27 26 27 27 26 24 24 26 31 35 35 31 27 26 28 28 26 25 26 28 30 30 31 31 31 31 30 29 29 30 30 30 31 34 36 37 39 40 42 42 42 42 43 43 44 44 47 48 48 49 47 46 43 41 43 47 48 50 51 49 51 53 52 52 54 54 53 53 54
36 35 35 35 35 35 35 35 35 36 35 34 33 32 31 29 27 26 26 25 24 24 25 28 33 36 34 28 24 26 27 26 25 26 28 29 30 32 32 32 32 32 31 29 28 28 29 29 31 33 35 37 38 38 38 38 38 39 39 41 43 43 44 46 46 46 46 45 41 37 39 44 44 46 48 46 48 53 53 53 53 53 53 53 54
36 35 34 34 34 34 34 34 34 35 35 33 33 33 31 28 26 25 25 24 24 25 26 30 35 37 32 26 24 26 26 25 27 29 29 29 31 33 33 33 33 32 31 29 28 28 28 30 33 36 38 39 40 41 40 39 40 39 40 42 44 43 42 43 45 45 45 45 41 37 39 43 45 46 46 43 44 48 51 52 51 51 50 49 50
35 35 34 34 34 33 33 33 33 34 34 33 33 32 30 26 24 24 25 25 25 25 26 30 36 36 31 26 25 24 25 27 29 30 29 30 32 33 33 33 33 32 30 29 31 34 36 38 39 41 42 42 42 42 41 40 40 38 37 38 40 39 39 41 43 44 45 45 42 37 38 42 44 45 46 44 43 46 48 50 50 51 50 49 48
34 34 34 34 34 34 33 33 33 33 34 33 32 31 28 25 23 23 24 24 25 26 26 30 35 34 29 27 25 23 25 29 31 30 30 30 30 32 32 31 31 31 30 32 37 42 43 43 43 43 43 42 41 40 40 38 36 33 30 30 31 33 36 37 39 40 42 42 38 34 35 38 38 40 40 39 39 42 44 45 46 48 48 48 46
Wind_Direction
310 313 312 309 312 316 320 321 314 309 302 294 293 294 295 295 296 296 295 294 293 292 291 290 289 289 288 287 286 285 282 281 281 281 280 279 278 279 282 284 284 283 281 276 271 267 264 264 264 264 265 266 268 269 270 271 273 273 272 273 273 273 273 272 272 271 270 269 269 268 268 268 268 269 270 270 270 270 271 271 271 271 271 271 270
303 304 305 305 306 305 307 311 310 309 307 296 288 288 290 290 291 293 294 294 294 295 294 293 293 293 292 290 289 288 287 285 284 283 282 282 282 282 282 281 282 282 282 279 274 268 264 263 262 263 263 264 266 268 270 270 271 271 272 272 273 274 274 273 272 271 270 268 268 268 268 268 267 268 268 269 269 270 270 271 271 271 271 271 270
304 304 307 306 303 305 306 308 306 302 299 299 303 301 296 292 289 288 289 290 290 291 291 291 291 290 289 286 285 285 285 283 281 280 281 282 283 283 282 281 280 280 280 278 274 269 265 263 262 262 262 263 264 265 267 268 269 270 271 271 272 273 273 273 273 272 271 270 269 269 268 267 267 267 266 266 267 268 269 270 270 271 271 270 269
304 303 304 305 302 303 304 305 311 310 301 299 301 298 299 301 300 297 295 294 291 289 288 290 291 289 287 284 282 281 280 281 280 280 280 281 283 283 282 282 279 276 274 273 271 270 267 264 262 261 260 261 261 262 263 264 266 268 269 270 271 272 272 272 273 273 273 272 272 271 270 268 267 266 266 265 265 266 267 268 269 269 269 269 268
303 302 301 301 302 301 299 299 307 315 311 306 296 288 295 303 306 307 307 307 303 300 299 298 296 293 289 286 283 280 279 279 279 280 281 282 282 283 283 282 279 273 269 266 266 267 266 265 263 262 261 261 260 260 261 262 264 266 267 269 269 270 271 272 272 273 273 273 273 273 272 271 270 269 267 266 266 265 266 267 268 268 267 267 267
300 301 299 298 300 303 304 304 306 307 306 309 308 302 302 302 303 303 305 308 307 308 309 307 304 299 295 291 286 281 280 278 278 279 280 281 282 281 281 280 277 273 268 264 261 261 261 262 262 262 262 261 261 261 262 263 264 265 267 268 270 271 272 273 274 274 274 273 274 274 274 273 273 272 271 270 269 268 267 266 266 266 266 266 266
296 296 297 298 300 302 307 311 314 313 307 308 312 312 307 302 300 298 299 302 303 306 307 306 304 301 300 298 291 285 282 279 278 279 280 281 282 282 281 280 279 278 275 269 262 259 258 258 258 259 260 260 261 261 262 263 264 266 267 270 272 274 275 276 276 277 277 276 276 276 275 275 274 273 272 272 271 271 269 268 266 266 265 264 264
284 289 293 296 298 300 304 307 310 313 311 310 312 315 313 308 303 299 299 300 302 304 306 305 302 301 303 301 297 291 287 283 280 279 279 280 281 281 282 282 283 282 280 276 270 265 263 262 260 260 261 261 261 261 262 263 264 265 267 269 271 273 274 275 275 275 276 276 276 277 276 276 274 273 272 270 270 270 269 268 267 266 265 264 263
277 281 285 289 294 295 297 298 297 299 303 305 309 312 315 316 312 307 304 302 304 307 309 309 308 308 309 307 303 298 292 287 285 284 283 281 281 281 281 281 281 280 280 278 276 273 269 267 267 266 266 265 265 265 266 266 266 266 265 266 266 268 269 270 271 272 272 272 273 274 274 274 274 273 272 270 269 268 267 266 265 265 264 264 263
282 282 280 278 281 284 287 288 290 293 296 299 304 307 309 314 314 312 309 305 306 309 311 314 314 312 311 310 308 303 298 293 290 288 287 286 285 284 283 280 279 278 278 277 276 276 274 273 271 271 270 269 270 269 270 269 268 267 266 265 265 266 268 268 269 269 269 268 268 268 269 270 270 270 270 269 269 268 267 267 266 265 265 264 263
286 285 282 278 277 282 287 288 291 296 300 301 302 302 301 304 307 307 306 304 304 308 312 313 312 310 308 308 306 304 302 298 294 291 289 289 288 287 285 283 281 279 278 278 278 277 276 275 273 272 272 272 271 271 270 270 270 270 270 270 270 270 269 268 267 267 266 265 264 264 265 266 266 267 267 267 267 267 267 267 267 267 266 266 265
305 305 299 295 293 293 295 294 295 298 301 303 303 300 298 300 304 305 304 303 303 305 309 309 309 311 311 310 309 307 304 300 297 293 290 290 289 287 285 283 281 279 278 277 275 274 274 274 274 273 273 272 270 270 271 272 274 274 275 275 275 273 270 267 267 266 265 264 263 264 266 266 267 267 267 266 266 266 267 267 267 267 266 266 266
342 335 329 323 317 313 306 302 302 301 303 305 305 299 297 300 303 304 307 311 311 307 310 309 305 310 315 315 313 310 307 304 300 295 294 295 294 289 286 283 280 278 277 273 268 267 269 270 272 272 272 270 268 268 270 272 273 275 276 276 275 273 270 269 268 267 266 266 267 269 270 270 270 269 268 268 267 267 266 266 266 267 267 267 267
347 338 332 329 326 326 323 321 318 313 309 306 305 301 299 301 306 306 307 314 317 312 317 315 303 305 312 312 311 312 311 309 304 301 301 302 301 295 288 283 281 282 280 274 270 268 267 267 268 268 268 268 269 270 271 271 272 274 274 274 274 274 272 271 270 270 270 270 271 271 271 271 270 270 269 268 268 267 267 267 267 267 267 267 267
339 335 330 326 325 326 326 328 326 321 317 312 309 307 306 307 314 318 312 310 310 311 323 326 316 316 314 305 304 309 308 307 308 308 307 305 302 297 293 289 287 287 285 280 274 272 271 271 271 270 268 267 269 270 272 272 273 273 273 274 276 276 274 272 272 272 272 272 272 271 271 270 270 269 268 268 267 267 267 267 267 267 267 267 267
336 337 333 330 328 326 326 326 326 326 324 320 317 315 315 315 315 319 319 314 310 309 317 326 327 328 321 309 303 300 297 302 307 306 305 303 301 299 297 297 295 291 287 282 279 280 280 279 276 275 273 272 272 272 273 274 276 276 276 278 279 278 276 274 273 273 273 273 272 272 271 270 269 269 268 268 268 267 268 268 268 268 268 267 267
340 336 332 330 326 324 324 322 322 322 321 320 320 318 318 317 315 316 321 321 316 310 306 309 315 320 324 320 311 297 290 299 304 302 301 301 300 301 301 299 297 295 291 287 287 289 288 283 279 277 275 275 276 277 277 278 280 281 281 281 281 280 279 277 276 274 274 275 274 274 273 271 270 268 268 267 267 267 267 267 267 268 268 267 266
341 337 334 331 328 324 322 319 318 317 318 318 316 315 312 311 314 316 319 321 320 315 308 304 304 305 310 314 313 307 303 304 301 296 298 302 301 301 301 300 298 298 296 293 295 299 294 286 283 282 280 278 278 279 281 282 283 284 284 282 281 281 280 278 277 276 276 277 277 276 275 274 272 269 267 266 266 265 265 265 265 266 266 266 266
341 339 335 333 331 328 324 320 319 316 316 315 313 312 311 310 312 313 315 316 316 316 315 311 307 303 303 303 305 308 311 314 307 297 296 299 302 301 299 298 298 298 296 293 297 301 296 288 284 284 281 279 280 282 283 283 284 283 283 282 282 281 279 278 277 277 278 279 280 279 278 276 273 270 267 266 265 265 264 265 265 265 266 265 265
340 337 334 333 330 329 327 323 321 318 315 314 314 313 312 310 308 306 307 308 310 312 313 314 312 308 306 304 303 303 305 311 313 312 305 297 297 299 298 298 298 297 296 295 298 300 298 294 291 288 283 279 278 280 282 282 282 282 282 282 283 282 281 279 278 278 279 279 280 280 277 275 272 270 269 268 266 266 266 266 266 266 267 267 267
335 333 332 331 328 327 327 325 323 321 319 317 315 313 311 310 308 307 306 306 307 308 308 309 309 309 309 308 307 306 305 304 305 314 316 306 301 302 304 304 301 298 298 299 299 298 297 296 295 294 292 287 283 281 282 282 281 280 281 282 283 283 282 279 278 278 278 278 279 277 274 272 272 271 269 269 269 269 269 268 269 268 268 269 269
333 332 330 329 328 326 325 324 323 321 320 318 315 312 311 311 311 311 311 310 308 306 306 307 306 307 308 308 308 309 310 310 307 308 312 313 310 311 313 313 308 303 301 301 301 299 294 291 292 294 295 295 292 289 287 286 284 282 281 281 281 280 279 278 277 277 277 277 277 275 270 269 270 269 269 271 272 272 272 272 271 270 269 269 269
333 332 330 328 327 327 326 324 323 320 318 316 314 313 311 311 312 311 311 311 310 308 306 306 305 305 305 305 307 310 311 311 309 308 310 312 312 312 314 316 312 307 305 302 300 298 293 289 289 290 292 293 294 294 291 288 286 285 284 281 279 278 276 275 276 276 276 276 275 271 266 266 267 269 271 273 274 274 274 274 273 272 272 271 271
331 329 328 327 326 326 326 324 323 321 319 317 315 313 311 310 309 308 307 307 307 307 306 305 304 303 301 301 303 304 305 305 304 305 307 308 309 308 307 310 313 310 310 308 299 295 294 293 292 290 290 291 291 291 291 290 289 288 287 284 280 277 274 273 273 274 275 274 272 270 266 266 267 269 273 276 275 274 273 273 273 272 272 272 272
331 330 328 327 326 325 324 323 323 322 320 318 316 313 311 309 308 306 305 304 304 304 305 305 304 301 300 301 300 299 299 301 302 301 302 302 304 306 303 303 307 307 309 310 305 299 295 294 296 294 293 292 291 292 292 292 292 290 291 290 285 277 271 269 269 270 273 273 271 270 269 268 268 269 272 275 274 273 272 272 272 271 271 271 273
333 332 331 329 328 327 325 324 323 322 320 318 316 314 312 310 309 307 305 304 302 302 303 302 300 298 299 300 299 299 299 300 300 299 301 303 304 310 310 304 302 302 302 303 304 303 298 294 294 295 295 293 292 294 294 294 294 292 292 292 288 282 273 267 266 267 269 271 272 273 271 267 265 266 269 272 273 272 271 270 270 270 270 271 273
335 334 332 331 329 328 327 326 324 323 321 320 318 316 314 313 311 309 307 305 302 302 302 299 297 297 299 300 299 299 300 300 301 300 301 305 305 309 315 312 307 303 301 299 298 299 299 298 294 291 294 295 294 295 295 295 294 292 291 290 287 283 279 272 268 266 266 268 272 273 272 266 261 264 269 271 272 272 272 271 270 269 269 271 272
337 336 334 333 332 329 328 327 326 325 323 322 320 319 318 317 315 313 311 309 306 305 302 299 299 300 298 298 298 298 299 299 300 300 301 302 302 303 307 313 314 308 304 302 299 295 296 298 296 289 289 294 296 298 299 296 294 293 290 288 286 283 280 276 270 269 268 269 270 272 271 266 262 263 267 269 271 271 271 271 271 270 269 270 271
337 336 335 334 333 331 330 329 328 327 326 325 323 322 321 320 319 318 316 315 312 310 306 304 304 303 301 300 300 299 299 298 297 298 299 299 300 302 303 306 310 308 305 304 299 295 294 296 296 291 287 284 285 290 295 293 290 292 289 285 285 283 280 277 273 272 271 270 270 271 269 265 263 265 267 268 269 269 270 272 272 271 269 269 270
337 336 334 333 332 331 330 330 329 329 328 327 326 325 324 322 321 320 319 319 317 314 313 312 310 307 305 304 303 302 301 299 298 298 298 299 300 301 302 303 306 305 303 301 296 290 292 291 284 284 285 279 273 276 281 285 286 288 288 285 283 282 280 278 276 275 273 271 271 271 267 264 266 269 269 268 268 268 269 271 271 270 268 268 268
340 338 336 335 334 333 332 331 330 330 329 328 328 327 326 325 323 321 321 321 319 317 317 318 318 316 312 310 308 307 306 304 303 302 301 302 303 305 306 306 308 309 305 303 296 285 283 287 280 277 280 279 274 272 273 278 283 286 287 286 284 282 281 279 277 276 274 273 273 271 267 266 268 272 271 267 267 268 268 268 268 269 268 268 268
343 342 341 339 338 337 336 335 334 333 331 331 331 329 328 327 325 323 323 322 320 319 319 320 321 320 319 318 316 314 313 310 309 309 308 308 309 310 308 301 299 305 305 306 300 286 281 287 286 280 280 279 275 274 275 275 279 283 284 283 282 281 279 276 275 275 275 274 273 271 270 270 271 271 270 268 267 267 267 266 265 266 266 266 266
348 347 345 344 343 342 340 339 338 336 335 335 334 332 329 328 326 325 324 324 322 321 321 322 322 322 321 321 321 321 321 317 315 316 314 313 314 310 304 300 299 303 306 304 304 294 286 288 291 287 287 288 279 273 275 275 274 277 279 277 275 277 277 276 274 273 272 272 273 272 272 272 272 271 269 268 266 266 268 267 264 262 262 262 263
352 351 349 348 347 345 344 343 341 340 339 338 336 335 331 329 327 326 325 324 323 323 325 324 323 323 322 320 322 324 324 322 322 322 318 318 319 315 312 314 313 313 316 312 309 305 294 288 291 290 290 295 292 281 278 278 273 271 274 275 274 275 276 275 274 272 270 270 271 272 272 271 270 270 270 269 267 267 268 268 264 260 258 258 259
352 352 350 348 348 347 346 345 344 343 341 340 339 336 333 330 327 325 325 323 323 323 324 324 323 323 323 322 323 324 323 322 321 323 324 323 322 322 322 325 324 320 324 321 311 309 303 293 294 298 295 296 299 293 287 286 279 272 271 271 271 274 276 275 274 271 269 269 270 269 270 270 270 270 271 271 269 269 271 270 267 262 258 257 257
349 349 348 347 347 346 345 345 344 344 343 341 339 336 334 331 328 326 324 322 321 322 322 322 322 322 322 321 322 322 321 321 320 319 324 326 325 326 325 322 320 317 317 319 314 310 309 302 299 302 303 300 300 301 298 295 288 278 272 270 268 269 271 272 273 272 270 270 271 270 270 270 271 271 270 269 268 270 272 272 271 267 262 258 256
345 344 344 344 343 343 343 343 343 343 343 342 339 336 333 330 327 325 323 322 322 322 322 321 320 321 322 321 322 324 323 324 324 319 320 326 326 322 315 311 313 315 313 315 316 312 310 307 301 300 303 302 301 303 305 304 297 288 279 275 272 270 268 267 268 272 273 272 272 271 271 270 269 268 268 267 268 269 270 270 270 271 269 265 260
341 340 340 340 340 340 339 339 340 339 340 340 338 336 333 331 329 325 324 324 323 322 322 321 322 326 326 325 325 326 325 325 325 318 316 321 320 311 308 310 312 315 314 313 314 311 306 303 301 299 300 302 302 302 305 308 306 299 292 288 282 275 271 268 265 266 269 272 272 270 270 269 267 267 267 267 268 267 265 264 266 268 270 270 267
336 336 336 336 336 336 335 335 336 336 336 337 336 335 333 332 331 329 327 326 323 323 323 323 327 330 328 324 322 321 320 319 318 315 314 317 317 310 311 314 314 313 313 313 314 313 308 304 302 301 301 302 302 303 305 309 308 302 300 301 294 283 276 274 270 266 265 268 270 268 268 267 266 266 267 267 266 264 262 261 263 265 267 270 270
334 334 333 333 333 332 332 332 332 332 332 333 334 334 333 333 332 329 327 324 323 323 322 324 327 325 317 312 309 308 308 307 307 306 306 310 313 312 310 312 312 311 312 313 314 312 310 307 305 304 304 304 304 305 307 309 308 304 302 303 300 293 286 284 281 275 271 272 272 269 266 266 266 265 265 266 264 262 262 262 262 263 265 268 269
332 332 331 331 331 329 329 329 329 329 329 330 332 333 333 333 331 327 324 323 323 322 320 321 317 309 307 307 304 303 302 302 302 299 296 297 302 305 306 306 308 310 310 311 311 309 308 308 306 306 308 307 308 310 309 308 308 307 305 303 300 298 295 292 286 278 278 282 282 275 268 267 271 269 266 266 264 264 266 266 264 264 265 266 267
331 330 330 329 329 328 328 327 327 328 328 328 330 330 331 331 328 324 322 321 320 319 317 315 309 306 308 308 306 306 308 308 309 306 299 295 295 297 300 303 306 309 309 308 307 306 306 306 305 305 305 304 306 307 307 307 307 307 307 306 303 300 299 299 292 282 281 287 291 287 275 270 273 275 271 268 267 268 271 271 268 267 266 265 264
329 329 328 327 327 326 326 326 326 327 327 328 328 327 327 328 326 323 321 318 317 316 314 311 309 310 310 309 309 311 313 315 315 313 309 304 301 301 303 306 310 310 308 306 305 305 305 304 302 301 300 299 301 304 305 308 309 307 306 304 302 302 300 300 297 290 287 291 296 294 284 274 274 277 273 268 267 268 271 272 270 268 266 264 262
328 328 327 326 326 326 325 324 324 324 325 325 326 326 326 326 325 323 319 315 313 313 313 309 306 308 309 311 314 316 317 319 319 318 319 319 318 318 316 315 314 310 307 303 302 303 303 303 301 298 297 297 300 303 305 306 306 304 304 302 302 303 300 296 294 290 288 291 294 293 286 277 277 280 275 267 264 265 265 265 265 265 264 263 262
328 327 327 327 326 326 325 324 323 322 323 323 323 325 325 324 325 324 317 313 313 314 314 309 305 307 312 317 322 323 323 324 325 326 328 327 324 322 320 318 314 311 309 305 303 302 301 301 298 295 295 298 300 302 304 304 303 301 301 300 299 298 296 292 290 288 286 289 292 292 286 277 275 279 277 270 266 265 264 262 260 261 262 262 262
328 328 328 327 327 326 326 324 323 322 322 323 322 323 325 325 325 323 316 314 319 319 315 310 307 308 315 321 324 324 324 325 326 328 326 324 323 322 320 318 315 313 312 309 309 308 305 300 296 295 297 300 301 300 298 297 297 297 297 297 296 295 293 291 289 287 286 285 287 290 285 278 274 276 278 275 272 270 268 265 262 260 261 261 259
327 327 327 327 326 326 325 324 323 322 322 324 324 324 325 327 326 322 317 319 323 319 313 309 305 307 315 321 321 318 319 320 322 322 322 322 322 321 319 318 316 314 311 309 308 307 304 300 298 298 299 299 297 296 296 296 297 298 297 296 295 295 295 293 292 290 288 286 285 285 283 280 279 277 276 275 275 274 272 269 265 264 264 263 261
326 326 326 326 326 326 326 325 323 322 322 323 324 324 326 329 328 323 322 324 322 316 312 307 304 308 316 320 317 315 315 316 317 320 321 322 322 321 320 318 316 314 311 309 307 305 302 300 300 298 296 296 296 296 297 297 297 297 297 295 294 294 294 294 292 291 290 289 287 284 281 280 281 280 279 277 275 275 274 272 268 267 267 267 264
325 326 325 326 326 326 325 325 324 322 322 323 324 325 326 329 330 326 325 324 319 313 311 307 307 314 319 317 314 315 314 314 317 320 321 322 323 322 320 318 317 314 312 312 312 307 302 299 298 297 296 296 296 296 296 295 293 293 295 294 294 294 294 292 290 289 289 289 288 285 280 277 276 277 279 280 277 275 275 274 271 270 270 270 268
324 325 325 325 325 326 325 325 325 323 322 323 324 324 326 329 330 328 326 322 316 313 312 309 312 318 320 316 314 313 312 314 318 319 321 324 324 323 323 322 319 315 314 316 312 305 303 303 302 301 301 300 300 299 299 298 296 296 295 295 296 296 292 288 288 288 288 288 289 289 282 279 278 276 277 279 278 275 273 273 273 273 272 272 271
323 324 325 324 324 325 325 324 324 324 323 322 323 324 326 329 328 326 324 321 317 314 313 312 314 318 318 315 313 312 312 315 318 319 322 324 324 326 326 323 318 315 316 315 307 304 306 309 309 308 307 307 306 305 304 304 305 305 303 302 302 298 292 290 292 293 292 291 293 293 285 281 282 280 278 278 276 274 273 273 274 275 275 275 275